FLOCK 3P'-2 (43120 NORAD) Tracking and Keplerian Element Data

This shows tracking and keplerian element data for the satellite.

Feedback or suggestion? Click here.




ElementValue
Catalog43120
NameFLOCK 3P'-2
Epoch Orbit29576
Epoch Day127.17496638
Epoch Year2023
RAAN203.9804
Inclination97.3341
Eccentricity0.0005547
Argument of Perigee269.7071
Mean Anonmoly90.3544
Mean Motion15.49375449
Decay Rate0.00158836
L11 43120U 18004K 23127.17496638 .00158836 00000+0 28439-2 0 9990
L22 43120 97.3341 203.9804 0005547 269.7071 90.3544 15.49375449295763



Live tracking and technical data element details for FLOCK 3P'-2 (NORAD 43120). FLOCK 3P'-2 can be tracked NOW for your location showing map with azimuth and elevation plus other details from your city location.







IsCatalogInMostPopularTable: catalog: 43120, numindb: 653
Update: records affected: 1



GetName: 43120 FLOCK 3P'-2

Hit Count: updated at: Tue, 18 Jun 2024 00:06:35 GMT